sat.trackr.live / text

‹ back to catalog

STARLINK-2092

NORAD 47373 · 2021-005AA

PAYLOAD ACTIVE UNKNOWN

§ Identity

Operator
Country
US
Launch date
2021-01-20
Launch site
AFETR
Launch vehicle
Mass (kg)
RCS (m²)

Purposes: comms

External: N2YO · Heavens-Above · Gunter

§ Orbital elements

Epoch: 2026-09-20T04:36:51.494688Z

Period
94.01 min
Inclination
53.1594°
Eccentricity
0.0001427
Mean motion
15.31703903 rev/d
Perigee alt
469.8 km
Apogee alt
471.7 km
Semi-major
6,848.9 km
B*
1.1898e-5
RAAN
237.3075°
Arg perigee
88.8848°
Mean anomaly
271.2317°
Rev number
31,283

§ Raw data

STARLINK-20921 47373U 21005AA  26263.19226267  .00000004  00000+0  11898-4 0  99902 47373  53.1594 237.3075 0001427  88.8848 271.2317 15.31703903312830

JSON: /api/v1/satellites/47373 · /tle

For live sub-satellite position, see the globe view (requires WebGL).

§ Visibility from observer

Set your observer location to see the next 7 days of passes ≥ 10°. The values pass through the URL so the page stays shareable.

No JS? Fill the form by hand. The geolocation button needs JavaScript.